Back to catalog

CZ-2C DEB

AliveSSO
NORAD 28482·DEBRIS·🇨🇳 China

Launched Nov 18, 2004 from Xichang Satellite Launch Center

Loading…

Next Passes (next 24 hours)

TLE

FreshSource: Space-Track

Epoch: Sep 14, 2026, 04:19 UTC

1 28482U 04046D   26257.17992354  .00001771  00000-0  42215-3 0  9993
2 28482  98.6273 347.4762 0099141 288.1084  97.1387 14.52164226141542

Track CZ-2C DEB in real time with AllMySat

Download on the App Store